SKW3309 KSAN-KSBP

Flight info

Callsign SKW3309
Flight time 0h 46m
Altitude 34000
Route PADRZ2 IKAYE RZS MQO
Aircraft E75L/M-SDE3GILORVW/S

Departure

Time 2026-04-23 22:40
Airport San Diego International Airport (KSAN)

Arrival

Time 2026-04-23 23:27
Airport San Luis County Regional Airport (KSBP)
Time Latitude Longitude Altitude Speed Heading
2026-04-23 22:05 32.73409 -117.20183 20 ft 0 kts 167°
2026-04-23 22:30 32.73411 -117.20183 20 ft 2 kts 167°
2026-04-23 22:30 32.73426 -117.20184 20 ft 2 kts 192°
2026-04-23 22:30 32.73440 -117.20178 20 ft 2 kts 198°
2026-04-23 22:31 32.73454 -117.20174 20 ft 2 kts 196°
2026-04-23 22:31 32.73463 -117.20170 20 ft 1 kts 190°
2026-04-23 22:31 32.73477 -117.20174 20 ft 2 kts 142°
2026-04-23 22:31 32.73484 -117.20185 20 ft 0 kts 110°
2026-04-23 22:32 32.73484 -117.20187 20 ft 1 kts 116°
2026-04-23 22:32 32.73475 -117.20156 20 ft 3 kts 109°
2026-04-23 22:32 32.73472 -117.20144 20 ft 1 kts 107°
2026-04-23 22:32 32.73470 -117.20140 20 ft 0 kts 106°
2026-04-23 22:35 32.73470 -117.20138 20 ft 1 kts 106°
2026-04-23 22:35 32.73468 -117.20114 20 ft 4 kts 76°
2026-04-23 22:35 32.73485 -117.20064 20 ft 9 kts 70°
2026-04-23 22:35 32.73494 -117.19965 20 ft 14 kts 102°
2026-04-23 22:36 32.73466 -117.19847 20 ft 15 kts 106°
2026-04-23 22:36 32.73437 -117.19725 21 ft 15 kts 106°
2026-04-23 22:36 32.73407 -117.19600 22 ft 16 kts 106°
2026-04-23 22:36 32.73376 -117.19472 24 ft 16 kts 106°
2026-04-23 22:37 32.73344 -117.19340 24 ft 17 kts 106°
2026-04-23 22:37 32.73309 -117.19199 23 ft 18 kts 106°
2026-04-23 22:37 32.73273 -117.19050 23 ft 19 kts 106°
2026-04-23 22:37 32.73234 -117.18888 22 ft 21 kts 106°
2026-04-23 22:38 32.73193 -117.18717 21 ft 21 kts 106°
2026-04-23 22:38 32.73149 -117.18538 21 ft 23 kts 106°
2026-04-23 22:38 32.73104 -117.18354 21 ft 23 kts 105°
2026-04-23 22:38 32.73058 -117.18162 21 ft 24 kts 106°
2026-04-23 22:39 32.73010 -117.17964 22 ft 23 kts 106°
2026-04-23 22:39 32.72973 -117.17810 24 ft 14 kts 106°
2026-04-23 22:39 32.72951 -117.17696 26 ft 14 kts 84°
2026-04-23 22:39 32.73001 -117.17613 27 ft 13 kts 357°
2026-04-23 22:40 32.73069 -117.17783 25 ft 52 kts 286°
2026-04-23 22:40 32.73244 -117.18503 23 ft 125 kts 286°
2026-04-23 22:40 32.73802 -117.20815 1129 ft 156 kts 285°
2026-04-23 22:41 32.74188 -117.22065 1612 ft 176 kts 302°
2026-04-23 22:41 32.74931 -117.23348 1963 ft 205 kts 305°
2026-04-23 22:41 32.75813 -117.24839 2328 ft 237 kts 305°
2026-04-23 22:41 32.76809 -117.26524 2805 ft 261 kts 306°
2026-04-23 22:42 32.77860 -117.28300 3645 ft 268 kts 306°
2026-04-23 22:42 32.78921 -117.30093 4665 ft 267 kts 306°
2026-04-23 22:42 32.79980 -117.31859 5667 ft 265 kts 308°
2026-04-23 22:42 32.81094 -117.33583 6586 ft 266 kts 308°
2026-04-23 22:43 32.82213 -117.35317 7427 ft 269 kts 307°
2026-04-23 22:43 32.83362 -117.37097 8215 ft 273 kts 307°
2026-04-23 22:43 32.84501 -117.38863 8995 ft 275 kts 307°
2026-04-23 22:43 32.85675 -117.40685 9762 ft 277 kts 307°
2026-04-23 22:44 32.86840 -117.42492 10483 ft 280 kts 306°
2026-04-23 22:44 32.88028 -117.44337 11125 ft 287 kts 306°
2026-04-23 22:44 32.89263 -117.46256 11666 ft 295 kts 306°
2026-04-23 22:44 32.90530 -117.48225 12202 ft 304 kts 306°
2026-04-23 22:45 32.91814 -117.50223 12756 ft 310 kts 306°
2026-04-23 22:45 32.93127 -117.52266 13451 ft 312 kts 305°
2026-04-23 22:45 32.94443 -117.54314 14138 ft 313 kts 305°
2026-04-23 22:45 32.95756 -117.56361 14828 ft 314 kts 305°
2026-04-23 22:46 32.97093 -117.58446 15525 ft 317 kts 305°
2026-04-23 22:46 32.98424 -117.60523 16144 ft 319 kts 304°
2026-04-23 22:46 32.99768 -117.62622 16769 ft 321 kts 304°
2026-04-23 22:46 33.01117 -117.64729 17375 ft 324 kts 304°
2026-04-23 22:47 33.02491 -117.66877 18000 ft 325 kts 303°
2026-04-23 22:47 33.03851 -117.69005 18599 ft 327 kts 303°
2026-04-23 22:47 33.05239 -117.71176 19170 ft 329 kts 303°
2026-04-23 22:47 33.06701 -117.73250 19676 ft 336 kts 313°
2026-04-23 22:48 33.08493 -117.75095 20229 ft 340 kts 315°
2026-04-23 22:48 33.10296 -117.76926 20758 ft 343 kts 315°
2026-04-23 22:48 33.12107 -117.78768 21248 ft 346 kts 315°
2026-04-23 22:48 33.13947 -117.80640 21762 ft 349 kts 315°
2026-04-23 22:49 33.15784 -117.82510 22239 ft 352 kts 315°
2026-04-23 22:49 33.17664 -117.84425 22703 ft 355 kts 315°
2026-04-23 22:49 33.19542 -117.86360 23176 ft 356 kts 312°
2026-04-23 22:49 33.21283 -117.88427 23636 ft 357 kts 310°
2026-04-23 22:50 33.23047 -117.90533 24128 ft 359 kts 310°
2026-04-23 22:50 33.24805 -117.92632 24574 ft 361 kts 310°
2026-04-23 22:50 33.26595 -117.94768 24998 ft 364 kts 310°
2026-04-23 22:50 33.28377 -117.96894 25417 ft 367 kts 310°
2026-04-23 22:51 33.30190 -117.99059 25852 ft 369 kts 310°
2026-04-23 22:51 33.32020 -118.01246 26285 ft 371 kts 310°
2026-04-23 22:51 33.33843 -118.03426 26673 ft 373 kts 310°
2026-04-23 22:51 33.35678 -118.05621 27079 ft 375 kts 309°
2026-04-23 22:52 33.37510 -118.07814 27474 ft 377 kts 309°
2026-04-23 22:52 33.39354 -118.10022 27871 ft 379 kts 310°
2026-04-23 22:52 33.41217 -118.12254 28249 ft 381 kts 310°
2026-04-23 22:52 33.43095 -118.14508 28605 ft 383 kts 309°
2026-04-23 22:53 33.44994 -118.16787 28951 ft 385 kts 309°
2026-04-23 22:53 33.46892 -118.19066 29337 ft 386 kts 309°
2026-04-23 22:53 33.48785 -118.21340 29764 ft 386 kts 309°
2026-04-23 22:53 33.50689 -118.23629 30278 ft 384 kts 309°
2026-04-23 22:54 33.52585 -118.25912 30766 ft 382 kts 309°
2026-04-23 22:54 33.54468 -118.28178 31232 ft 381 kts 309°
2026-04-23 22:54 33.56327 -118.30418 31720 ft 379 kts 309°
2026-04-23 22:54 33.58174 -118.32645 32161 ft 378 kts 309°
2026-04-23 22:55 33.60040 -118.34896 32588 ft 377 kts 309°
2026-04-23 22:55 33.61870 -118.37106 33030 ft 375 kts 309°
2026-04-23 22:55 33.63708 -118.39326 33434 ft 374 kts 309°
2026-04-23 22:55 33.65522 -118.41518 33843 ft 373 kts 309°
2026-04-23 22:56 33.67341 -118.43716 33943 ft 365 kts 308°
2026-04-23 22:56 33.70939 -118.48076 33977 ft 372 kts 308°
2026-04-23 22:57 33.74564 -118.52470 33976 ft 372 kts 309°
2026-04-23 22:57 33.78217 -118.56904 33977 ft 373 kts 308°
2026-04-23 22:58 33.81848 -118.61316 33975 ft 373 kts 309°
2026-04-23 22:58 33.85499 -118.65759 33988 ft 373 kts 308°
2026-04-23 22:59 33.89130 -118.70184 33988 ft 373 kts 308°
2026-04-23 22:59 33.92764 -118.74617 33983 ft 374 kts 308°
2026-04-23 23:00 33.96388 -118.79044 33981 ft 372 kts 308°
2026-04-23 23:00 34.00033 -118.83502 33969 ft 372 kts 308°
2026-04-23 23:01 34.03666 -118.87951 33985 ft 372 kts 308°
2026-04-23 23:01 34.07292 -118.92398 33991 ft 372 kts 308°
2026-04-23 23:02 34.10894 -118.96822 33990 ft 371 kts 308°
2026-04-23 23:02 34.14402 -119.01376 33992 ft 365 kts 299°
2026-04-23 23:03 34.17001 -119.06556 33998 ft 362 kts 295°
2026-04-23 23:03 34.19548 -119.11794 33994 ft 362 kts 295°
2026-04-23 23:04 34.22086 -119.17027 33994 ft 363 kts 295°
2026-04-23 23:04 34.24626 -119.22270 33991 ft 364 kts 295°
2026-04-23 23:05 34.27166 -119.27520 33996 ft 361 kts 295°
2026-04-23 23:05 34.29711 -119.32793 34002 ft 362 kts 295°
2026-04-23 23:06 34.32241 -119.38039 34003 ft 363 kts 295°
2026-04-23 23:06 34.34776 -119.43302 34002 ft 363 kts 295°
2026-04-23 23:07 34.37314 -119.48580 34003 ft 362 kts 295°
2026-04-23 23:07 34.39855 -119.53876 34025 ft 371 kts 295°
2026-04-23 23:08 34.42500 -119.59394 34023 ft 388 kts 295°
2026-04-23 23:08 34.43866 -119.62247 33895 ft 399 kts 296°
2026-04-23 23:08 34.45271 -119.65184 33897 ft 406 kts 295°
2026-04-23 23:09 34.48122 -119.71147 33923 ft 409 kts 295°
2026-04-23 23:09 34.49539 -119.74120 33195 ft 419 kts 295°
2026-04-23 23:09 34.51028 -119.77135 31812 ft 426 kts 300°
2026-04-23 23:09 34.52837 -119.79954 30465 ft 430 kts 305°
2026-04-23 23:10 34.54701 -119.82752 29532 ft 420 kts 305°
2026-04-23 23:10 34.56489 -119.85448 29086 ft 402 kts 305°
2026-04-23 23:10 34.58199 -119.88032 28534 ft 389 kts 304°
2026-04-23 23:10 34.59862 -119.90551 27733 ft 383 kts 305°
2026-04-23 23:11 34.61528 -119.93077 26802 ft 380 kts 305°
2026-04-23 23:11 34.63148 -119.95534 25867 ft 378 kts 305°
2026-04-23 23:11 34.64784 -119.98016 24960 ft 374 kts 305°
2026-04-23 23:11 34.66396 -120.00464 24081 ft 370 kts 306°
2026-04-23 23:12 34.67981 -120.02872 23221 ft 366 kts 306°
2026-04-23 23:12 34.69538 -120.05239 22390 ft 362 kts 306°
2026-04-23 23:12 34.71095 -120.07608 21557 ft 357 kts 306°
2026-04-23 23:12 34.72634 -120.09952 20750 ft 353 kts 306°
2026-04-23 23:13 34.74150 -120.12260 19939 ft 349 kts 306°
2026-04-23 23:13 34.75650 -120.14548 19138 ft 346 kts 306°
2026-04-23 23:13 34.77134 -120.16811 18346 ft 342 kts 306°
2026-04-23 23:13 34.78595 -120.19041 17571 ft 339 kts 306°
2026-04-23 23:14 34.80050 -120.21264 16809 ft 336 kts 306°
2026-04-23 23:14 34.81263 -120.23637 15988 ft 332 kts 288°
2026-04-23 23:14 34.81470 -120.26372 15160 ft 331 kts 262°
2026-04-23 23:14 34.80590 -120.28924 14383 ft 335 kts 236°
2026-04-23 23:15 34.79081 -120.31075 13631 ft 334 kts 231°
2026-04-23 23:15 34.77551 -120.33157 12876 ft 331 kts 232°
2026-04-23 23:15 34.76020 -120.35250 12105 ft 330 kts 231°
2026-04-23 23:15 34.74525 -120.37315 11383 ft 327 kts 231°
2026-04-23 23:16 34.73037 -120.39387 10834 ft 319 kts 231°
2026-04-23 23:16 34.71626 -120.41369 10409 ft 308 kts 232°
2026-04-23 23:16 34.70717 -120.43584 10215 ft 286 kts 264°
2026-04-23 23:16 34.70960 -120.45919 10261 ft 281 kts 296°
2026-04-23 23:17 34.72230 -120.47701 10317 ft 284 kts 329°
2026-04-23 23:17 34.74119 -120.48357 10373 ft 288 kts
2026-04-23 23:17 34.76116 -120.48290 10409 ft 288 kts 349°
2026-04-23 23:17 34.78074 -120.48824 10266 ft 290 kts 347°
2026-04-23 23:18 34.80051 -120.49290 9958 ft 287 kts 349°
2026-04-23 23:18 34.81998 -120.49692 9644 ft 281 kts 350°
2026-04-23 23:18 34.83917 -120.50063 9334 ft 278 kts 351°
2026-04-23 23:18 34.85838 -120.50423 9028 ft 277 kts 351°
2026-04-23 23:19 34.87732 -120.50771 8723 ft 278 kts 352°
2026-04-23 23:19 34.89651 -120.51123 8416 ft 277 kts 352°
2026-04-23 23:19 34.91565 -120.51473 8105 ft 276 kts 352°
2026-04-23 23:19 34.93438 -120.51815 7801 ft 274 kts 352°
2026-04-23 23:20 34.95324 -120.52159 7495 ft 273 kts 352°
2026-04-23 23:20 34.97210 -120.52503 7191 ft 272 kts 352°
2026-04-23 23:20 34.99070 -120.52843 6890 ft 271 kts 353°
2026-04-23 23:20 35.00924 -120.52774 6594 ft 269 kts 20°
2026-04-23 23:21 35.02557 -120.51662 6304 ft 265 kts 34°
2026-04-23 23:21 35.04052 -120.50427 5977 ft 256 kts 34°
2026-04-23 23:21 35.05502 -120.49214 5696 ft 247 kts 35°
2026-04-23 23:21 35.06888 -120.48049 5426 ft 239 kts 35°
2026-04-23 23:22 35.08241 -120.46908 5162 ft 231 kts 35°
2026-04-23 23:22 35.09542 -120.45809 4914 ft 226 kts 35°
2026-04-23 23:22 35.10892 -120.44856 4676 ft 225 kts 14°
2026-04-23 23:22 35.12415 -120.45032 4498 ft 223 kts 336°
2026-04-23 23:23 35.13554 -120.46323 4143 ft 223 kts 308°
2026-04-23 23:23 35.14424 -120.47864 3771 ft 219 kts 308°
2026-04-23 23:23 35.15291 -120.49372 3398 ft 215 kts 308°
2026-04-23 23:23 35.16140 -120.50851 3042 ft 211 kts 308°
2026-04-23 23:24 35.16960 -120.52281 2717 ft 202 kts 308°
2026-04-23 23:24 35.17727 -120.53619 2399 ft 183 kts 308°
2026-04-23 23:24 35.18442 -120.54864 2142 ft 173 kts 308°
2026-04-23 23:24 35.19095 -120.56004 1913 ft 159 kts 308°
2026-04-23 23:25 35.19701 -120.57062 1656 ft 143 kts 308°
2026-04-23 23:25 35.20238 -120.58000 1426 ft 126 kts 308°
2026-04-23 23:25 35.20708 -120.58823 1231 ft 111 kts 308°
2026-04-23 23:25 35.21146 -120.59586 1084 ft 108 kts 308°
2026-04-23 23:26 35.21573 -120.60342 942 ft 109 kts 307°
2026-04-23 23:26 35.22002 -120.61099 772 ft 107 kts 308°
2026-04-23 23:26 35.22426 -120.61830 617 ft 105 kts 308°
2026-04-23 23:26 35.22843 -120.62550 440 ft 103 kts 308°
2026-04-23 23:27 35.23251 -120.63260 272 ft 101 kts 307°
2026-04-23 23:27 35.23636 -120.63929 209 ft 75 kts 306°
2026-04-23 23:27 35.23840 -120.64285 198 ft 36 kts 306°
2026-04-23 23:27 35.23943 -120.64432 191 ft 12 kts 12°
2026-04-23 23:28 35.23990 -120.64388 191 ft 7 kts 70°
2026-04-23 23:28 35.23970 -120.64327 194 ft 10 kts 125°
2026-04-23 23:28 35.23924 -120.64254 198 ft 10 kts 137°
2026-04-23 23:28 35.23885 -120.64195 201 ft 7 kts 126°
2026-04-23 23:29 35.23847 -120.64130 203 ft 12 kts 126°
2026-04-23 23:29 35.23795 -120.64033 205 ft 14 kts 117°
2026-04-23 23:29 35.23750 -120.63933 209 ft 12 kts 110°
2026-04-23 23:29 35.23739 -120.63831 213 ft 13 kts 93°
2026-04-23 23:30 35.23747 -120.63733 216 ft 10 kts 50°
2026-04-23 23:30 35.23803 -120.63698 218 ft 8 kts
2026-04-23 23:30 35.23851 -120.63701 218 ft 4 kts 334°
2026-04-23 23:30 35.23857 -120.63738 216 ft 3 kts 270°
2026-04-23 23:31 35.23857 -120.63748 216 ft 1 kts 269°
2026-04-23 23:31 35.23857 -120.63750 216 ft 0 kts 270°